[[{"header":{"parameterUnit":"m.s-1","parameterCategory":1,"la1":30.2991,"la2":30.254,"lo1":-89.0895,"lo2":-89.0444,"dy":0.0017,"dx":0.0017,"nx":28,"ny":28,"refTime":"2026-02-10T09:00:00:Z","depth":0,"parameterNumber":2,"parameterNumberName":"U-component_of_WINDS"},"data":[0,0,0,0,0,0,0,0,0,0,0,0,0,0,0,0,0,0,0,0,0,0,0,0,0,0,0,0,0,0,0,0,0,0,0,0,0,0,0,0,0,0,0,0,0,0,0,0,0,0,0,0,0,0,0,0,0,0,0.7636,0.7635,0,0.7583,0.7583,0.7582,0.752,0.7519,0.7518,0.7517,0.7464,0.7463,0.7462,0,0,0,0,0,0,0,0,0,0,0,0,0,0.7683,0.7682,0.7636,0.7635,0.7635,0.7583,0.7582,0.7582,0.752,0.7519,0.7518,0.7517,0.7464,0.7463,0.7462,0,0,0,0,0,0,0,0,0,0,0,0,0,0.765,0.7682,0.7636,0.7598,0.7594,0.7583,0.7582,0.7582,0.7521,0.7519,0.7518,0.7516,0.7464,0.7463,0.7462,0.7485,0,0,0.746,0.7459,0,0,0,0,0,0,0,0,0.7652,0.7648,0.7604,0.76,0.7596,0.7557,0.7579,0.7549,0.7521,0.7548,0.7517,0.7516,0.7496,0.7492,0.7485,0.7483,0.748,0.746,0.7459,0.7459,0.7459,0,0,0,0,0,0,0,0.7654,0.765,0.7615,0.7603,0.7598,0.7583,0.7577,0.7573,0.7531,0.7546,0.7541,0.7536,0.7493,0.7486,0.7484,0.748,0.746,0.7459,0.7458,0.7458,0.7492,0.7493,0,0,0,0,0,0,0.7662,0.7652,0.7617,0.7613,0.7621,0.7583,0.7576,0.7571,0.753,0.7523,0.7537,0.7533,0.7488,0.7485,0.7482,0.7504,0.7459,0.7458,0.7457,0.749,0.7492,0.7494,0,0,0,0,0,0,0.7663,0.7659,0.7619,0.7631,0.7625,0.7584,0.7578,0.757,0.7563,0.7524,0.7516,0.7538,0.7487,0.7483,0.7484,0.7502,0.7458,0.7457,0.7489,0.7491,0.7493,0.7552,0,0,0,0,0,0,0.7665,0.766,0.7669,0.7632,0.7625,0.7623,0.7579,0.757,0.7562,0.7557,0.7522,0.7515,0.7486,0.7486,0.7484,0.75,0.7456,0.7487,0.749,0.7492,0.7548,0.7556,0.7562,0,0,0,0,0,0.7667,0.7688,0.767,0.7666,0.7634,0.7624,0.762,0.7585,0.7564,0.7572,0.7546,0.7517,0.7501,0.7487,0.7483,0.75,0.7486,0.7489,0.7492,0.7545,0.7554,0.7562,0,0,0,0,0,0,0.7728,0.7682,0.7662,0.7671,0.7652,0.7614,0.7623,0.7596,0.7583,0.7578,0.7535,0.7528,0.7535,0.7517,0.7503,0.7519,0.7489,0.7491,0.753,0.7539,0.7546,0.7549,0.7455,0,0,0,0,0,0.7742,0.7738,0.7698,0.7711,0.7702,0.7664,0.7659,0.7633,0.7612,0.7603,0.7578,0.7558,0.7548,0.7542,0.7531,0.7546,0.7537,0.7555,0.7562,0.7568,0.7571,0.7575,0.7583,0.7504,0.7504,0.7504,0,0,0.7772,0.7747,0.7747,0.7722,0.7705,0.77,0.7658,0.7656,0.7652,0.7603,0.7602,0.7583,0.7558,0.7566,0.7568,0.7552,0.759,0.7572,0.7577,0.7576,0.7579,0.7587,0.7594,0.7506,0.7506,0.7505,0,0,0.7825,0.7806,0.7813,0.7796,0.7769,0.7744,0.7746,0.7711,0.7697,0.7696,0.7658,0.7653,0.7638,0.7621,0.761,0.7656,0.7628,0.7654,0.769,0.7695,0.7701,0.7707,0.7722,0.7728,0.7656,0.7657,0.7657,0,0.7865,0.7858,0.7821,0.782,0.781,0.7766,0.7773,0.7758,0.7729,0.7723,0.7705,0.7684,0.7664,0.7666,0.7677,0.7671,0.7671,0.7657,0.7704,0.7708,0.7713,0.7727,0.7733,0.766,0.7659,0.7659,0.7659,0,0.7909,0.7904,0.7913,0.7886,0.7877,0.7881,0.7844,0.7839,0.7815,0.7791,0.779,0.7765,0.7747,0.7746,0.7723,0.7745,0.7735,0.7712,0.768,0.7724,0.7736,0.7742,0.7664,0.7663,0.7662,0.7662,0,0,0.7997,0.7949,0.7953,0.794,0.7907,0.7903,0.7904,0.7886,0.7883,0.7865,0.7864,0.7851,0.7828,0.7817,0.7791,0.7796,0.7832,0.777,0.7769,0.7782,0.7853,0.7871,0.7878,0.7813,0.7814,0.7815,0.7855,0,0.8043,0.8042,0.8008,0.8017,0.8011,0.7969,0.797,0.7949,0.7928,0.7919,0.7895,0.7886,0.7857,0.785,0.7853,0.7827,0.7845,0.7823,0.7811,0.7811,0.7818,0.7884,0.7903,0.7942,0.786,0.786,0.7861,0,0.8095,0.808,0.8088,0.8054,0.805,0.8052,0.8032,0.8026,0.8002,0.7985,0.7972,0.7942,0.794,0.7911,0.7907,0.7893,0.7886,0.7873,0.7873,0.787,0.7838,0.7882,0.7954,0.7959,0.7868,0.7868,0.7867,0,0.8158,0.8139,0.8141,0.8131,0.8092,0.8093,0.8077,0.8052,0.8043,0.8026,0.802,0.8004,0.7995,0.7982,0.7949,0.7931,0.7949,0.7917,0.7934,0.7935,0.7939,0.7939,0.801,0.7937,0.7937,0.7937,0.7936,0,0.8211,0.8217,0.8168,0.8169,0.8175,0.8136,0.8142,0.8122,0.81,0.8095,0.8058,0.8055,0.8012,0.8004,0.7978,0.7978,0.7974,0.796,0.7953,0.7963,0.7964,0.7957,0.7953,0.7938,0.7938,0.7937,0.7937,0,0.8281,0.8249,0.8248,0.821,0.8201,0.8207,0.8175,0.8174,0.815,0.8145,0.8142,0.8103,0.8092,0.8058,0.8038,0.802,0.8027,0.8015,0.8035,0.803,0.8049,0.8047,0.8117,0.8123,0.8048,0.8048,0.8049,0,0.8317,0.832,0.8284,0.8278,0.8263,0.8256,0.8246,0.8209,0.8201,0.8173,0.8176,0.8161,0.8147,0.8131,0.8101,0.8085,0.8071,0.8096,0.8068,0.8077,0.8069,0.8069,0.8069,0.8102,0.8103,0.8104,0.8105,0,0.8383,0.8366,0.8355,0.8338,0.8328,0.8312,0.8295,0.8293,0.825,0.8243,0.8231,0.822,0.8199,0.8185,0.8164,0.8147,0.8118,0.8114,0.8117,0.8126,0.8137,0.813,0.8051,0.8112,0.8111,0.8111,0.811,0.811,0.8435,0.8436,0.841,0.8398,0.8381,0.8366,0.8363,0.8338,0.8327,0.8307,0.8286,0.8276,0.8251,0.822,0.8205,0.8196,0.8181,0.8185,0.8186,0.8187,0.8192,0.814,0.8192,0.8192,0.8192,0.8191,0.8191,0,0.8498,0.8479,0.8469,0.8445,0.8436,0.8411,0.839,0.8383,0.8375,0.8354,0.8342,0.8327,0.8313,0.8282,0.8265,0.8264,0.825,0.826,0.8259,0.8255,0.8207,0.8205,0.8271,0.8271,0.8271,0.8271,0.8271,0.8271,0.8529,0.8529,0.851,0.85,0.8481,0.8471,0.8461,0.8447,0.843,0.8415,0.8403,0.8383,0.8358,0.8339,0.8324,0.8316,0.831,0.8325,0.8312,0.8267,0.8259,0.8252,0.825,0.8324,0.8324,0.8361,0.8361,0.8361]},{"header":{"parameterUnit":"m.s-1","parameterCategory":1,"la1":30.2991,"la2":30.254,"lo1":-89.0895,"lo2":-89.0444,"dy":0.0017,"dx":0.0017,"nx":28,"ny":28,"refTime":"2026-02-10T09:00:00:Z","depth":0,"parameterNumber":3,"parameterNumberName":"V-component_of_WINDS"},"data":[0,0,0,0,0,0,0,0,0,0,0,0,0,0,0,0,0,0,0,0,0,0,0,0,0,0,0,0,0,0,0,0,0,0,0,0,0,0,0,0,0,0,0,0,0,0,0,0,0,0,0,0,0,0,0,0,0,0,2.7798,2.7799,0,2.7839,2.784,2.784,2.7838,2.7837,2.7836,2.7836,2.7882,2.7883,2.7885,0,0,0,0,0,0,0,0,0,0,0,0,0,2.7722,2.7723,2.7798,2.7799,2.7799,2.7839,2.784,2.784,2.7838,2.7837,2.7836,2.7836,2.7881,2.7883,2.7885,0,0,0,0,0,0,0,0,0,0,0,0,0,2.7758,2.7724,2.7798,2.7803,2.7803,2.7839,2.784,2.7841,2.7838,2.7837,2.7836,2.7835,2.788,2.7883,2.7886,2.7921,0,0,2.7894,2.7895,0,0,0,0,0,0,0,0,2.7756,2.7761,2.7801,2.7802,2.7803,2.7832,2.783,2.7868,2.7838,2.7825,2.7836,2.7835,2.7866,2.787,2.788,2.7923,2.7925,2.7894,2.7896,2.7897,2.7898,0,0,0,0,0,0,0,2.7754,2.7759,2.7815,2.7802,2.7803,2.7804,2.7808,2.7837,2.785,2.7826,2.7826,2.7831,2.7867,2.7877,2.7881,2.7925,2.7894,2.7896,2.7898,2.7899,2.8001,2.8002,0,0,0,0,0,0,2.7749,2.7757,2.7813,2.7816,2.7777,2.7806,2.7811,2.7824,2.785,2.7853,2.7831,2.783,2.7873,2.7878,2.7882,2.7926,2.7897,2.7899,2.7901,2.8,2.8001,2.8002,0,0,0,0,0,0,2.7748,2.7754,2.7812,2.7786,2.7794,2.7808,2.7823,2.7825,2.7836,2.7854,2.7857,2.784,2.7873,2.7879,2.7911,2.7928,2.79,2.7903,2.7998,2.8,2.8002,2.8013,0,0,0,0,0,0,2.7746,2.7754,2.7766,2.7787,2.7795,2.7838,2.7824,2.7827,2.784,2.7839,2.7862,2.7865,2.7872,2.7907,2.7914,2.7931,2.7905,2.7997,2.7999,2.8001,2.8012,2.8015,2.8018,0,0,0,0,0,2.7743,2.7768,2.7767,2.7774,2.7811,2.7839,2.7844,2.7851,2.7841,2.7855,2.7867,2.7865,2.7925,2.7911,2.7918,2.7936,2.7996,2.7999,2.8001,2.801,2.8015,2.8018,0,0,0,0,0,0,2.7751,2.7771,2.777,2.7802,2.7819,2.7839,2.7856,2.7855,2.7876,2.7874,2.7882,2.7888,2.792,2.7932,2.7915,2.7972,2.7959,2.7964,2.7964,2.7968,2.7971,2.7969,2.7907,0,0,0,0,0,2.7756,2.7776,2.7794,2.7821,2.7829,2.7841,2.7854,2.7857,2.7875,2.7883,2.7897,2.7916,2.7939,2.7954,2.7976,2.8013,2.8019,2.803,2.8033,2.8035,2.8039,2.8061,2.8066,2.801,2.801,2.801,0,0,2.7768,2.7781,2.7794,2.7823,2.7836,2.7858,2.7847,2.7871,2.7888,2.7887,2.7918,2.7929,2.7951,2.7986,2.8002,2.7997,2.8056,2.8039,2.8041,2.8043,2.8064,2.807,2.8074,2.8012,2.8012,2.8011,0,0,2.7801,2.7812,2.7837,2.785,2.787,2.7878,2.7884,2.7904,2.7911,2.7942,2.7942,2.7964,2.8003,2.8019,2.8032,2.8072,2.8071,2.8079,2.8097,2.8118,2.8122,2.8126,2.8142,2.8147,2.8082,2.8082,2.8082,0,2.7813,2.7845,2.785,2.7874,2.7887,2.7886,2.7912,2.7925,2.7952,2.7962,2.7955,2.8005,2.8019,2.8059,2.8068,2.8079,2.8087,2.8076,2.8121,2.8125,2.8129,2.8144,2.8149,2.8083,2.8083,2.8083,2.8083,0,2.786,2.7882,2.79,2.7925,2.794,2.7965,2.7975,2.799,2.7993,2.8002,2.8035,2.8052,2.8078,2.8088,2.8091,2.8128,2.8124,2.8119,2.8106,2.8135,2.8149,2.8155,2.8084,2.8084,2.8084,2.8083,0,0,2.7899,2.7926,2.7933,2.7944,2.7966,2.7985,2.801,2.8035,2.8048,2.8067,2.809,2.8124,2.8119,2.8134,2.8139,2.8157,2.8189,2.815,2.815,2.8158,2.8234,2.8238,2.8245,2.8189,2.819,2.8191,2.8232,0,2.7935,2.7979,2.7984,2.8023,2.8045,2.8045,2.8067,2.8084,2.8094,2.8115,2.8125,2.815,2.8141,2.815,2.8168,2.8181,2.8205,2.8178,2.8212,2.8213,2.8207,2.8252,2.8256,2.8295,2.8238,2.8238,2.8239,0,2.7983,2.8002,2.8043,2.8063,2.8072,2.8092,2.8116,2.8135,2.8155,2.8161,2.8178,2.818,2.8209,2.8194,2.8234,2.8216,2.823,2.8239,2.8241,2.8245,2.8228,2.8258,2.8307,2.8313,2.8248,2.8247,2.8246,0,2.8009,2.8045,2.8074,2.8084,2.8108,2.8122,2.8133,2.8152,2.8166,2.8188,2.8198,2.8222,2.8236,2.8256,2.8266,2.8254,2.8306,2.8292,2.8313,2.8313,2.8324,2.8324,2.8377,2.8332,2.8331,2.8331,2.8331,0,2.8049,2.8075,2.8086,2.8105,2.8134,2.814,2.817,2.818,2.8197,2.8219,2.822,2.8241,2.8252,2.8275,2.8283,2.8316,2.8322,2.8329,2.8331,2.8329,2.8328,2.8339,2.8337,2.8333,2.8333,2.8332,2.8332,0,2.8083,2.8092,2.8124,2.8144,2.8149,2.817,2.8188,2.8207,2.8216,2.8243,2.825,2.8265,2.8292,2.8304,2.8337,2.8343,2.8381,2.838,2.8374,2.8375,2.8396,2.8394,2.8459,2.8468,2.8415,2.8416,2.8416,0,2.8109,2.8129,2.815,2.8164,2.8175,2.8197,2.8212,2.8219,2.8235,2.826,2.8276,2.8303,2.8325,2.8368,2.8383,2.8409,2.841,2.8431,2.8414,2.8413,2.8412,2.8412,2.8414,2.8435,2.8435,2.8436,2.8436,0,2.8154,2.8157,2.8178,2.82,2.8218,2.8236,2.8254,2.8266,2.8276,2.8294,2.8321,2.8338,2.8372,2.84,2.8427,2.844,2.8441,2.8441,2.8448,2.8447,2.8443,2.8446,2.8384,2.844,2.8439,2.8439,2.8439,2.8439,2.8186,2.8204,2.8221,2.8244,2.8258,2.8275,2.8294,2.8305,2.8327,2.8355,2.8358,2.8388,2.8408,2.8445,2.8459,2.8483,2.8478,2.8487,2.849,2.8492,2.8494,2.8438,2.8488,2.8488,2.8488,2.8488,2.8488,0,2.8232,2.8243,2.8264,2.8289,2.8308,2.8305,2.8325,2.8341,2.8366,2.8385,2.8406,2.8438,2.8465,2.8482,2.8509,2.8525,2.8527,2.8533,2.8532,2.8535,2.8496,2.8488,2.8531,2.8531,2.8531,2.8531,2.8531,2.8531,2.8258,2.8288,2.8294,2.8332,2.8343,2.8371,2.8383,2.8399,2.8414,2.8449,2.847,2.8481,2.8499,2.8528,2.8553,2.8557,2.8568,2.8574,2.8579,2.8542,2.8538,2.8534,2.8526,2.8576,2.8576,2.8616,2.8617,2.8617]}]]